Find Kosmos-1324

NORAD ID: 12979 Int'l Des: 1981-116 Owner: GUKOS Country: SU operational
LEOCIRCULAR

当前视图

正在加载3D地球...

About Kosmos-1324

Kosmos-1324 (NORAD 12979) is a satellite launched Nov 28, 1981 by GUKOS of SU. It operates in LEO, CIRCULAR orbit with a mass of 60.00 kg.

即将过境

Passes for default location (London). Set your location on the main map for personalized predictions.

高度历史

Loading altitude history...

两行轨道根数

1 12979U 81116E 26195.57351139 -.00000021 00000-0 -51115-4 0 9994
2 12979 73.9846 318.4793 0087314 163.5747 209.6887 12.29740280 3309
Epoch: Jul 14, 2026 • Age: 9 hours

当前状态

高度 1594.7 km
远地点 / 近地点 N/A
速度 7.06 km/s
星下点 -73.96°S, 55.62°W
发射日期 Nov 28, 1981
运行时间 44.6 years
类型 other

技术详情

分类 Payload
质量 60.00 kg
干质量 60.00 kg
总质量 60.00 kg
长度 0.80 m
直径 0.80 m
跨度 0.80 m
形状 Poly
制造商 NPOPM
平台类型 Strela-1 11F625
阶段状态 In Orbit
所有者/国家 GUKOS/SU

Most Searched